BEIJING 1 1 28890U 05043A 26035.30657845 .00000251 00000+0 57903-4 0 9998 2 28890 98.2686 167.9541 0014264 342.4067 17.6639 14.63426352 81214 HUANJING 1A (HJ-1A) 1 33320U 08041A 26035.25124458 .00001998 00000+0 24786-3 0 9997 2 33320 97.6583 26.3368 0018094 211.4587 148.5547 14.83604849938695 HUANJING 1B (HJ-1B) 1 33321U 08041B 26035.29833741 .00001732 00000+0 21723-3 0 9998 2 33321 97.6438 29.9365 0034943 259.6314 100.0961 14.83011395938718 YAOGAN-4 1 33446U 08061A 26035.31959842 .00001333 00000+0 17081-3 0 9991 2 33446 97.9226 329.9131 0015239 138.8830 221.3535 14.82874303925979 DEIMOS-1 1 35681U 09041A 26035.30610416 .00001021 00000+0 15865-3 0 9995 2 35681 97.7193 198.4343 0000123 127.5989 232.5232 14.75057854887299 UK-DMC 2 1 35683U 09041C 26035.34594132 .00001482 00000+0 22353-3 0 9998 2 35683 97.8603 173.7542 0001334 75.7174 284.4184 14.75770448886977 DMC3-FM1 1 40715U 15032A 26035.25289882 .00001042 00000+0 12643-3 0 9993 2 40715 97.6653 265.4883 0006641 121.9254 238.2609 14.85554751570177 DMC3-FM2 1 40716U 15032B 26035.27530897 .00001362 00000+0 16348-3 0 9992 2 40716 97.6712 266.9921 0007098 126.7066 233.4802 14.85560240570176 DMC3-FM3 1 40717U 15032C 26035.29770653 .00000162 00000+0 24713-4 0 9994 2 40717 97.6767 268.6813 0006370 125.7897 234.3912 14.85524010570187